Weather History for KM30 - February, 2014

Change the Weather History Date:

Wednesday, February 26, 2014

  Actual Average (KPAH) Record (KPAH)
Temperature  
Mean Temperature 23 °F 43 °F  
Max Temperature 29 °F 53 °F 73 °F (1996)
Min Temperature 17 °F 33 °F 10 °F (1967)
Degree Days  
Heating Degree Days 42 22  
Month to date heating degree days 678  
Since 1 July heating degree days 3251  
Cooling Degree Days 0 0  
Month to date cooling degree days 0  
Year to date cooling degree days 0  
Moisture  
Dew Point 3 °F    
Average Humidity 43    
Maximum Humidity 64    
Minimum Humidity 23    
Precipitation  
Precipitation 0.00 in 0.14 in 1.50 in (2000)
Month to date precipitation 3.65  
Year to date precipitation 7.33  
Snow  
Snow 0.00 in 0.00 in 1.30 in (1989)
Month to date snowfall 3.0  
Since 1 July snowfall 8.3  
Snow Depth -    
Sea Level Pressure  
Sea Level Pressure 30.17 in    
Wind  
Wind Speed 11 mph (NW)    
Max Wind Speed 17 mph    
Max Gust Speed 26 mph    
Visibility 10 miles    
Events      
T = Trace of Precipitation, MM = Missing Value Source: NWS Daily Summary

Daily Weather History Graph

Daily Weather History Graph

Search for Another Location

Airport or City:

Trip Planner

Search our weather history database for the weather conditions in past years. The results will help you decide how hot, cold, wet, or windy it might be!

Date:

Astronomy

Feb. 26, 2014 Rise Set
Actual Time 6:30 AM CST 5:46 PM CST
Civil Twilight 6:03 AM CST 6:12 PM CST
Nautical Twilight 5:33 AM CST 6:42 PM CST
Astronomical Twilight 5:03 AM CST 7:12 PM CST
Moon 4:13 AM CST (2/26) 3:03 PM CST (2/26)
Length of Visible Light 12h 08m
Length of Day
11h 16m
Waning Crescent, 10% of the Moon is Illuminated
Feb 26
Waning Crescent
Mar 1
New
Mar 8
First Quarter
Mar 16
Full
Mar 23
Last Quarter

Hourly Weather History & Observations

Time (CST) Temp. Windchill Dew Point Humidity Pressure Visibility Wind Dir Wind Speed Gust Speed Precip Events Conditions
12:15 AM 27.3 °F 16.1 °F 14.5 °F 59% 30.23 in 10.0 mi NNW 13.8 mph 18.4 mph N/A   Scattered Clouds
12:35 AM 27.3 °F 17.7 °F 15.4 °F 61% 30.23 in 10.0 mi NNW 10.4 mph 13.8 mph N/A   Clear
12:55 AM 27.3 °F 19.1 °F 15.4 °F 61% 30.23 in 10.0 mi NNW 8.1 mph 19.6 mph N/A   Mostly Cloudy
1:15 AM 27.0 °F 14.3 °F 13.1 °F 56% 30.23 in 10.0 mi NNW 17.3 mph 23.0 mph N/A   Scattered Clouds
1:35 AM 26.6 °F 14.7 °F 12.9 °F 56% 30.24 in 10.0 mi North 15.0 mph 19.6 mph N/A   Scattered Clouds
1:55 AM 26.2 °F 13.4 °F 13.8 °F 59% 30.24 in 10.0 mi NNW 17.3 mph 21.9 mph N/A   Mostly Cloudy
2:15 AM 25.5 °F 14.3 °F 13.5 °F 60% 30.25 in 10.0 mi North 12.7 mph 24.2 mph N/A   Mostly Cloudy
2:35 AM 24.6 °F 12.2 °F 13.8 °F 64% 30.25 in 10.0 mi NNW 15.0 mph 26.5 mph N/A   Overcast
2:55 AM 23.9 °F 11.2 °F 7.0 °F 49% 30.25 in 10.0 mi NNW 15.0 mph 26.5 mph N/A   Mostly Cloudy
3:15 AM 23.5 °F 10.8 °F 4.3 °F 44% 30.25 in 10.0 mi NNW 15.0 mph 24.2 mph N/A   Overcast
3:35 AM 23.0 °F 9.6 °F 4.8 °F 46% 30.25 in 10.0 mi North 16.1 mph - N/A   Overcast
3:55 AM 22.3 °F 8.2 °F 4.8 °F 47% 30.26 in 10.0 mi North 17.3 mph 20.7 mph N/A   Overcast
4:15 AM 21.0 °F 9.3 °F 5.0 °F 50% 30.26 in 10.0 mi North 11.5 mph 20.7 mph N/A   Overcast
4:35 AM 20.3 °F 7.7 °F 5.0 °F 52% 30.28 in 10.0 mi North 12.7 mph 16.1 mph N/A   Overcast
4:55 AM 20.1 °F 8.1 °F 4.3 °F 50% 30.27 in 10.0 mi North 11.5 mph - N/A   Scattered Clouds
5:15 AM 19.8 °F 7.7 °F 3.9 °F 50% 30.26 in 10.0 mi North 11.5 mph 18.4 mph N/A   Scattered Clouds
5:35 AM 19.4 °F 7.2 °F 2.8 °F 49% 30.27 in 10.0 mi NNW 11.5 mph - N/A   Mostly Cloudy
5:55 AM 19.2 °F 5.3 °F 3.2 °F 50% 30.27 in 10.0 mi NNW 15.0 mph 18.4 mph N/A   Scattered Clouds
6:15 AM 18.7 °F 5.7 °F 3.6 °F 52% 30.28 in 10.0 mi NNW 12.7 mph 19.6 mph N/A   Scattered Clouds
6:35 AM 18.3 °F 6.6 °F 3.6 °F 53% 30.28 in 10.0 mi NNW 10.4 mph - N/A   Scattered Clouds
6:55 AM 18.0 °F 6.1 °F 3.2 °F 53% 30.28 in 10.0 mi North 10.4 mph 19.6 mph N/A   Clear
7:20 AM 18.5 °F 6.1 °F 3.7 °F 53% 30.29 in 10.0 mi North 11.5 mph 19.6 mph N/A   Clear
7:35 AM 18.1 °F 4.4 °F 3.9 °F 54% 30.29 in 10.0 mi NNW 13.8 mph 17.3 mph N/A   Scattered Clouds
7:55 AM 17.6 °F 5.0 °F 3.4 °F 54% 30.29 in 10.0 mi NNW 11.5 mph 19.6 mph N/A   Scattered Clouds
8:15 AM 19.0 °F 5.0 °F 3.7 °F 51% 30.29 in 10.0 mi NNW 15.0 mph 21.9 mph N/A   Scattered Clouds
8:35 AM 19.6 °F 7.4 °F 3.7 °F 50% 30.29 in 10.0 mi NW 11.5 mph - N/A   Scattered Clouds
8:55 AM 19.6 °F 6.8 °F 2.8 °F 48% 30.28 in 10.0 mi North 12.7 mph 21.9 mph N/A   Scattered Clouds
9:15 AM 19.8 °F 9.9 °F 2.8 °F 48% 30.27 in 10.0 mi North 8.1 mph 18.4 mph N/A   Clear
9:35 AM 20.7 °F 10.2 °F 1.8 °F 44% 30.28 in 10.0 mi North 9.2 mph - N/A   Clear
9:55 AM 21.2 °F 10.9 °F 2.8 °F 45% 30.29 in 10.0 mi NNW 9.2 mph - N/A   Clear
10:15 AM 21.7 °F 11.5 °F 2.5 °F 43% 30.28 in 10.0 mi NNW 9.2 mph - N/A   Clear
10:35 AM 22.1 °F 12.0 °F 2.3 °F 42% 30.27 in 10.0 mi North 9.2 mph - N/A   Clear
10:55 AM 22.8 °F 15.5 °F 1.4 °F 40% 30.26 in 10.0 mi North 5.8 mph 17.3 mph N/A   Clear
11:15 AM 23.5 °F 13.7 °F 2.3 °F 40% 30.26 in 10.0 mi North 9.2 mph - N/A   Clear
11:35 AM 24.8 °F 14.0 °F 2.7 °F 39% 30.25 in 10.0 mi NW 11.5 mph - N/A   Clear
11:55 AM 25.0 °F 15.5 °F 1.0 °F 36% 30.24 in 10.0 mi NNE 9.2 mph 16.1 mph N/A   Clear
12:15 PM 25.2 °F 16.5 °F 1.8 °F 37% 30.22 in 10.0 mi North 8.1 mph - N/A   Clear
12:35 PM 25.7 °F 18.0 °F 1.0 °F 35% 30.20 in 10.0 mi NW 6.9 mph - N/A   Clear
12:55 PM 26.4 °F 16.6 °F 0.3 °F 32% 30.18 in 10.0 mi NW 10.4 mph 16.1 mph N/A   Clear
1:15 PM 26.6 °F 18.2 °F -1.1 °F 30% 30.17 in 10.0 mi WNW 8.1 mph - N/A   Clear
1:35 PM 27.5 °F 16.8 °F -1.5 °F 29% 30.15 in 10.0 mi NNW 12.7 mph - N/A   Clear
1:55 PM 27.5 °F 23.6 °F -1.5 °F 29% 30.14 in 10.0 mi NNW 3.5 mph - N/A   Clear
2:15 PM 28.2 °F 22.0 °F -2.2 °F 27% 30.13 in 10.0 mi NW 5.8 mph - N/A   Clear
2:35 PM 28.2 °F 20.2 °F -4.2 °F 25% 30.12 in 10.0 mi NNW 8.1 mph - N/A   Clear
2:55 PM 28.6 °F 21.5 °F -3.8 °F 25% 30.12 in 10.0 mi NNW 6.9 mph - N/A   Clear
3:15 PM 28.8 °F 20.2 °F -5.3 °F 23% 30.11 in 10.0 mi WNW 9.2 mph - N/A   Clear
3:35 PM 29.1 °F 21.3 °F -4.9 °F 23% 30.11 in 10.0 mi NNW 8.1 mph - N/A   Clear
3:55 PM 29.1 °F 20.0 °F -3.5 °F 24% 30.10 in 10.0 mi West 10.4 mph - N/A   Clear
4:15 PM 29.1 °F 22.1 °F -3.1 °F 25% 30.09 in 10.0 mi NW 6.9 mph - N/A   Clear
4:35 PM 28.9 °F 22.8 °F -3.5 °F 25% 30.08 in 10.0 mi West 5.8 mph - N/A   Clear
4:55 PM 28.9 °F 21.9 °F -2.2 °F 26% 30.07 in 10.0 mi NW 6.9 mph - N/A   Clear
5:15 PM 28.4 °F 22.2 °F -1.3 °F 28% 30.07 in 10.0 mi West 5.8 mph - N/A   Clear
5:35 PM 27.7 °F 22.4 °F 1.0 °F 32% 30.06 in 10.0 mi WNW 4.6 mph - N/A   Clear
5:55 PM 26.8 °F 20.2 °F -0.9 °F 30% 30.06 in 10.0 mi West 5.8 mph - N/A   Clear
6:15 PM 26.2 °F 19.6 °F -2.0 °F 29% 30.06 in 10.0 mi WNW 5.8 mph - N/A   Clear
6:35 PM 25.7 °F 21.5 °F -2.0 °F 30% 30.05 in 10.0 mi WNW 3.5 mph - N/A   Clear
6:55 PM 24.8 °F - 0.9 °F 36% 30.06 in 10.0 mi Calm Calm - N/A   Clear
7:15 PM 25.2 °F - -1.8 °F 31% 30.05 in 10.0 mi Calm Calm - N/A   Clear
7:35 PM 22.5 °F - 7.0 °F 52% 30.05 in 10.0 mi Calm Calm - N/A   Clear
7:55 PM 21.9 °F - 3.4 °F 45% 30.04 in 10.0 mi Calm Calm - N/A   Clear
8:15 PM 21.7 °F - 1.8 °F 42% 30.04 in 10.0 mi Calm Calm - N/A   Clear
8:35 PM 21.0 °F - 7.2 °F 55% 30.04 in 10.0 mi Calm Calm - N/A   Clear
8:55 PM 21.0 °F 14.6 °F 6.1 °F 53% 30.04 in 10.0 mi SSW 4.6 mph - N/A   Clear
9:15 PM 22.1 °F 14.7 °F 5.7 °F 49% 30.03 in 10.0 mi SSW 5.8 mph - N/A   Clear
9:35 PM 24.3 °F 16.3 °F 5.2 °F 44% 30.03 in 10.0 mi SSW 6.9 mph - N/A   Clear
9:55 PM 23.9 °F 16.8 °F 5.5 °F 46% 30.03 in 10.0 mi SSW 5.8 mph - N/A   Clear
10:15 PM 23.9 °F 15.8 °F 5.5 °F 46% 30.03 in 10.0 mi SSW 6.9 mph - N/A   Clear
10:35 PM 23.9 °F 15.8 °F 6.3 °F 47% 30.02 in 10.0 mi SSW 6.9 mph - N/A   Clear
10:55 PM 23.7 °F 16.6 °F 6.4 °F 48% 30.02 in 10.0 mi SW 5.8 mph - N/A   Clear
11:15 PM 23.2 °F 15.0 °F 7.3 °F 51% 30.01 in 10.0 mi SW 6.9 mph - N/A   Clear
11:35 PM 23.4 °F 16.2 °F 7.3 °F 50% 30.01 in 10.0 mi SW 5.8 mph - N/A   Clear
11:55 PM 22.6 °F 16.5 °F 7.9 °F 53% 30.01 in 10.0 mi SW 4.6 mph - N/A   Clear